sat.trackr.live / text

‹ back to catalog

STARLINK-36643

NORAD 67822 · 2026-033B

PAYLOAD ACTIVE UNKNOWN

§ Identity

Operator
Country
US
Launch date
2026-02-16
Launch site
AFETR
Launch vehicle
Mass (kg)
RCS (m²)

Purposes: comms

External: N2YO · Heavens-Above · Gunter

§ Orbital elements

Epoch: 2026-09-19T07:35:34.375776Z

Period
94.27 min
Inclination
43.0016°
Eccentricity
0.0001934
Mean motion
15.27581840 rev/d
Perigee alt
481.7 km
Apogee alt
484.4 km
Semi-major
6,861.2 km
B*
2.7761e-4
RAAN
253.8305°
Arg perigee
284.5089°
Mean anomaly
75.5548°
Rev number
3,428

§ Raw data

STARLINK-366431 67822U 26033B   26262.31637009  .00007385  00000+0  27761-3 0  99942 67822  43.0016 253.8305 0001934 284.5089  75.5548 15.27581840 34282

JSON: /api/v1/satellites/67822 · /tle

For live sub-satellite position, see the globe view (requires WebGL).

§ Visibility from observer

Set your observer location to see the next 7 days of passes ≥ 10°. The values pass through the URL so the page stays shareable.

No JS? Fill the form by hand. The geolocation button needs JavaScript.